This demonstration page uses our WeatherBlox Daily Observations layout. Learn more.

Left ArrowRight Arrow

39.92423, -83.80882

Hourly Observations for June 26, 2018

Temp ( °F °C ) Dew Point ( °F °C ) Humidity (%) Winds ( mph kmh ) Pressure ( in mb ) Visibility ( mi km ) Precip ( " mm )
12:56 am 00:56 Mostly Clear 63 17.2 61 16.1 93 93 ESE 5 7 30.13 1020 10 16 N/A
1:56 am 01:56 Cloudy 64 17.8 62 16.7 93 93 E 5 7 30.13 1020 10 16 N/A
2:56 am 02:56 Cloudy 64 17.8 63 17.2 96 96 E 6 9 30.11 1020 10 16 N/A
3:56 am 03:56 Mostly Clear 64 17.8 62 16.7 93 93 E 5 7 30.10 1019 10 16 N/A
4:56 am 04:56 Partly Cloudy 63 17.2 62 16.7 97 97 NE 6 9 30.10 1019 10 16 N/A
5:56 am 05:56 Mostly Clear 62 16.7 61 16.1 96 96 E 6 9 30.10 1019 8 13 N/A
6:56 am 06:56 Sunny 64 17.8 62 16.7 93 93 E 9 15 30.09 1019 10 16 N/A
7:56 am 07:56 Mostly Sunny 66 18.9 63 17.2 90 90 E 8 13 30.09 1019 10 16 N/A
8:21 am 08:21 Mostly Cloudy 68 20 63 17 83 83 ESE 12 19 30.09 1019 10 16 N/A
8:56 am 08:56 Cloudy 70 21.1 64 17.8 82 82 E 8 13 30.09 1019 10 16 N/A
9:56 am 09:56 Mostly Cloudy 73 22.8 65 18.3 76 76 ESE 7 11 30.07 1018 10 16 N/A
10:56 am 10:56 Mostly Sunny 75 23.9 67 19.4 76 76 S 8 13 30.07 1018 10 16 N/A
11:56 am 11:56 Sunny 78 25.6 68 20 71 71 SSE 9 15 30.08 1019 10 16 N/A
12:33 pm 12:33 Cloudy 79 26 70 21 74 74 SSE 9 15 30.06 1018 10 16 N/A
12:56 pm 12:56 Cloudy 79 26.1 69 20.6 72 72 SSE 8 13 30.05 1018 10 16 N/A
1:14 pm 13:14 Cloudy 79 26 70 21 74 74 ESE 6 9 30.00 1016 10 16 N/A
1:56 pm 13:56 Cloudy with Light Rain 78 25.6 69 20.6 74 74 S 6 9 30.05 1018 10 16 N/A
2:06 pm 14:06 Cloudy with Nearby Thunderstorms 75 24 68 20 78 78 NW 28 44 30.06 1018 3 4 0.11 2.79
2:09 pm 14:09 Cloudy with Strong Thunderstorms 70 21 66 19 88 88 WNW 22 35 30.06 1018 2 3 0.19 4.83
2:17 pm 14:17 Cloudy with Strong Thunderstorms 66 19 64 18 94 94 W 15 24 30.06 1018 3 4 0.38 9.65
2:24 pm 14:24 Cloudy with Thunderstorms 66 19 64 18 94 94 WSW 8 13 30.06 1018 5 8 0.41 10.41
2:56 pm 14:56 Mostly Cloudy with Nearby Thunderstorms 66 18.9 65 18.3 96 96 ENE 3 6 30.07 1018 10 16 0.45 11.43
3:00 pm 15:00 Mostly Cloudy with Nearby Thunderstorms 66 19 64 18 94 94 N N/A 30.03 1017 10 16 N/A
3:27 pm 15:27 Cloudy with Nearby Thunderstorms 66 19 64 18 94 94 NNE 3 6 30.03 1017 7 11 0.03 0.76
3:42 pm 15:42 Cloudy with Rain 66 19 64 18 94 94 ESE 5 7 30.03 1017 4 6 0.07 1.78
3:53 pm 15:53 Cloudy with Thunderstorms 66 19 66 19 100 100 ESE 6 9 30.03 1017 5 8 0.10 2.54
3:56 pm 15:56 Cloudy with Thunderstorms 66 18.9 66 18.9 100 100 ESE 6 9 30.05 1018 4 6 0.10 2.54
4:08 pm 16:08 Cloudy with Light Rain 66 19 66 19 100 100 SSE 8 13 30.03 1017 8 13 0.01 0.25
4:28 pm 16:28 Cloudy with Light Rain 66 19 66 19 100 100 S 9 15 30.03 1017 10 16 0.02 0.51
4:56 pm 16:56 Cloudy with Light Rain 67 19.4 66 18.9 97 97 S 8 13 30.06 1018 10 16 0.03 0.76
5:18 pm 17:18 Mostly Cloudy with Rain 66 19 66 19 100 100 SSE 10 17 30.00 1016 10 16 0.03 0.76
5:56 pm 17:56 Cloudy with Light Rain 66 18.9 65 18.3 96 96 SE 13 20 29.95 1014 10 16 0.06 1.52
6:56 pm 18:56 Sunny 68 20 66 18.9 93 93 N N/A 29.94 1014 10 16 0.01 0.25
7:30 pm 19:30 Partly Cloudy 68 20 66 19 94 94 S 3 6 29.91 1013 10 16 N/A
7:41 pm 19:41 Mostly Cloudy 68 20 66 19 94 94 S 6 9 29.91 1013 10 16 N/A
7:56 pm 19:56 Mostly Cloudy 68 20 67 19.4 96 96 S 6 9 29.94 1014 10 16 N/A
8:56 pm 20:56 Cloudy 68 20 66 18.9 93 93 S 7 11 29.95 1014 10 16 N/A
9:56 pm 21:56 Cloudy 67 19.4 66 18.9 97 97 S 7 11 29.96 1015 10 16 N/A
10:56 pm 22:56 Cloudy 67 19.4 66 18.9 97 97 S 3 6 29.96 1014 10 16 N/A
11:47 pm 23:47 Partly Cloudy 66 19 66 19 100 100 SSE 5 7 29.91 1013 10 16 N/A
11:56 pm 23:56 Mostly Clear 66 18.9 66 18.9 100 100 SSE 5 7 29.92 1013 10 16 N/A

Powered by AerisWeather